AirNav   Everest Fuels
 
 1490 users online  

64GA Big 'T' Airport
Senoia, Georgia, USA

GOING TO SENOIA?


FAA INFORMATION EFFECTIVE 21 APRIL 2022

Location

FAA Identifier: 64GA
Lat/Long: 33-17-00.4290N 084-32-19.7370W
33-17.007150N 084-32.328950W
33.2834525,-84.5388158
(estimated)
Elevation: 900 ft. / 274 m (estimated)
Variation: 01W (1985)
From city: 1 mile SE of SENOIA, GA
Time zone: UTC -4 (UTC -5 during Standard Time)
Zip code: 30276

Airport Operations

Airport use: Private use. Permission required prior to landing
Activation date: 01/1987
Control tower: no
ARTCC: ATLANTA CENTER
FSS: MACON FLIGHT SERVICE STATION
Attendance: UNATNDD
Wind indicator: yes
Segmented circle: yes

Airport Communications

WX ASOS at FFC (5 nm N): 118.525 (770-487-1610)
WX AWOS-3PT at CCO (12 nm W): 118.975 (770-254-1617)
WX AWOS-3 at HMP (12 nm NE): 124.825 (770-707-1719)
WX AWOS-3 at 6A2 (14 nm E): 119.750 (770-227-3934)

Nearby radio navigation aids

VOR radial/distance  VOR name  Freq  Var
ATLr199/21.4ATLANTA VORTAC116.9005W
LGCr066/36.3LAGRANGE VORTAC115.6001E
PDKr204/37.5PEACHTREE VOR/DME116.6005W

 
NDB name  Hdg/Dist  Freq  Var  ID
PECAT253/2.831605WFFC ..-. ..-. -.-.
COWETA COUNTY083/8.923403WEQQ . --.- --.-
CARROLLTON124/34.227804WGPQ --. .--. --.-

Airport Services

Runway Information

Runway 16/34

Dimensions: 2050 x 150 ft. / 625 x 46 m
Surface: turf
RUNWAY 16  RUNWAY 34
Traffic pattern: rightleft

Airport Ownership and Management from official FAA records

Ownership: Privately-owned
Owner: BIG T HOMEOWNERS ASSOC
65 TINSLEY WAY
SENOIA, GA 30276
Phone 770-599-4567
Manager: JIM RENWICK
65 TINSLEY WAY
SENOIA, GA 30276
Phone 770-599-4567

Airport Operational Statistics

Aircraft based on the field: 20
Single engine airplanes: 20
    

Additional Remarks

FOR CD CTC ATLANTA APCH AT 678-364-6131.
(CONTACT TITLE) AMGR CELL PHONE: 770-827-5952

Instrument Procedures

There are no published instrument procedures at 64GA.

Some nearby airports with instrument procedures:

KFFC - Atlanta Regional Airport-Falcon Field (5 nm N)
KCCO - Newnan Coweta County Airport (12 nm W)
KHMP - Atlanta Speedway Airport (12 nm NE)
6A2 - Griffin-Spalding County Airport (14 nm E)
KATL - Hartsfield - Jackson Atlanta International Airport (22 nm N)
 
Loc | Ops | Rwys | IFR | FBO | Links
Com | Nav | Svcs | Stats | Notes
Area around 64GA (Big 'T' Airport)
 
Road maps at: MapQuest Bing Google
 
Aerial photo
WARNING: Photo may not be current or correct
Aerial photo of 64GA (Big 'T' Airport)
Photo taken 04-Sep-2015
looking west.

Do you have a better or more recent aerial photo of Big 'T' Airport that you would like to share? If so, please send us your photo.

 
Sectional chart

 
Airport distance calculator
Flying to Big 'T' Airport? Find the distance to fly.

From to 64GA

Sunrise and sunset
Times for 18-May-2022
 Local
(UTC-4)
 Zulu
(UTC)
Morning civil twilight06:1010:10
Sunrise06:3710:37
Sunset20:3200:32
Evening civil twilight21:0001:00

Current date and time
Zulu (UTC)  18-May-2022 22:47:55
Local (UTC-4)  18-May-2022 18:47:55
 
METAR
KFFC 
4nm N 
182153Z AUTO 25004KT 10SM CLR 31/11 A2995 RMK AO2 SLP136 T03110106
KCCO 
12nm W 
182235Z AUTO 24004KT 10SM CLR 30/12 A2994 RMK AO2 T02970124
KHMP 
12nm NE 
182235Z AUTO 23008KT 10SM CLR 31/13 A2996 RMK AO2 T03080130
K6A2 
14nm E 
182235Z AUTO 21008KT 170V260 10SM CLR 30/10 A2994 RMK AO2
TAF
KATL 
21nm N 
182147Z 1822/1924 19010KT P6SM FEW200 SCT250 FM190200 23004KT P6SM FEW250 FM191500 26009KT P6SM FEW040 FM192000 25010KT P6SM FEW250
NOTAMs
Click for the latest NOTAMs
NOTAMs are issued by the DoD/FAA and will open in a separate window not controlled by AirNav.

 

 
 

Would you like to see your business listed on this page?

 If your business provides an interesting product or service to pilots, flight crews, aircraft, or users of the Big 'T' Airport, you should consider listing it here.  To start the listing process, click on the button below
 
Add a business
 

Other Pages about Big 'T' Airport

Update a link
 
Copyright © AirNav, LLC. All rights reserved. Privacy Policy  Contact